Regional Weather Roundup
Issued by NWS Midland/Odessa, TX

Skip options and go directly to product.
Home | Oldest Version | Previous Version | Current Version | All | Text Only | Save Text | Print | Product List | Glossary On

Skip product version selection by date and time.   
096
ASUS44 KMAF 290910
RWRMAF
MIDLAND AREA WEATHER ROUNDUP
NATIONAL WEATHER SERVICE MIDLAND TX
400 AM CDT SUN MAY 29 2016

...IN SOUTHWEST TEXAS AND SOUTHEAST NEW MEXICO...

CITY           SKY/WX    TMP DP  RH WIND       PRES   REMARKS
ALPINE         PTCLDY    65  58  79 SW5       30.09F
ANDREWS        CLOUDY    67  60  80 E17G24    30.04R
ARTESIA        CLEAR     63  32  31 CALM      30.00S
BIG SPRING     CLOUDY    63  58  86 E22       30.06F
CARLSBAD       CLEAR     71  61  70 S6        29.97F
DRYDEN           N/A     73  72  96 E17G25    29.93R
FORT STOCKTON  NOT AVBL
GUAD PASS      NOT AVBL
HOBBS          PTCLDY    63  63 100 E14       30.05S
MARFA          CLEAR     54  49  83 N3        30.08F
MIDLAND AIRPK  MOCLDY    71  62  74 E10G18    30.04R
MIDLAND INTL   CLOUDY    73  60  63 E16       30.02S
ODESSA         CLOUDY    73  60  63 SE15G23   30.03R
PECOS          PTCLDY    73  65  76 E10       29.93S
PRESIDIO       NOT AVBL
SEMINOLE       PTCLDY    64  58  82 SE16G22   30.05S
SNYDER           N/A     64  58  80 E14       30.06F
WINK           NOT AVBL
$$
...OTHER STATIONS IN TEXAS...

CITY           SKY/WX    TMP DP  RH WIND       PRES   REMARKS
ABILENE        CLOUDY    65  63  93 NE14      30.12R
AMARILLO       CLEAR     58  51  78 SE13      30.07S
AUSTIN         LGT RAIN  75  74  96 SW7       30.06R
BROWNSVILLE    PTCLDY    79  77  94 SE7       29.91F
CORPUS CHRISTI MOCLDY    79  76  90 SE9       29.94F
DALLAS FTW     CLOUDY    77  72  84 CALM      30.04R
DEL RIO        CLOUDY    72  66  81 E16G29    29.94R
EL PASO        CLOUDY    80   1   5 CALM      30.01R
HOUSTON INT    CLOUDY    71  71 100 CALM      30.02F
LUBBOCK        PTCLDY    64  56  75 SE12      30.06R
SAN ANGELO     CLOUDY    73  63  70 NE15      30.03R
SAN ANTONIO    TSTM      75  72  90 N10       30.08R
WACO           CLOUDY    75  70  84 SE8       30.01F HAZE
WICHITA FALLS  NOT AVBL
$$
...OTHER LOCATIONS IN NEW MEXICO...

CITY           SKY/WX    TMP DP  RH WIND       PRES   REMARKS
ALAMAGORDO     MOCLDY    59  16  18 W12       30.04R
ALBUQUERQUE    PTCLDY    62  18  18 CALM      30.09S
CANNON AFB     CLEAR     57  51  79 SE3       30.10R
CLOVIS         CLEAR     55  46  71 SE3       30.09S
HOLLOMAN AFB   CLOUDY    58  17  20 S6        30.03R
ROSWELL        CLEAR     63  32  31 N6        30.01S
RUIDOSO          N/A     54   9  16 CALM      30.21F
SANTA FE       CLOUDY    50  21  32 N9        30.16S
TRUTH OR CONSE CLEAR     60   8  12 NW9       30.05F
TUCUMCARI      CLEAR     63  47  55 S6        30.06R
$$

USA.gov is the U.S. government's official web portal to all federal, state and local government web resources and services.